Weather History for Grosse Ile, MI

Change the Weather History Date:

Thursday, November 14, 2013

  Actual Average (KDTW) Record (KDTW)
Temperature  
Mean Temperature 40 °F 42 °F  
Max Temperature 50 °F 50 °F 70 °F (1909)
Min Temperature 30 °F 35 °F 13 °F (1986)
Degree Days  
Heating Degree Days 25 23  
Month to date heating degree days 284  
Since 1 July heating degree days 795  
Cooling Degree Days 0 0  
Month to date cooling degree days 0  
Year to date cooling degree days 803  
Moisture  
Dew Point 22 °F    
Average Humidity 51    
Maximum Humidity 69    
Minimum Humidity 34    
Precipitation  
Precipitation 0.00 in 0.10 in 1.07 in (1957)
Month to date precipitation 1.28  
Year to date precipitation 29.50  
Snow  
Snow 0.00 in 0.00 in 3.00 in (1933)
Month to date snowfall 0.3  
Since 1 July snowfall 0.4  
Since 1 September snowfall 0.4  
Snow Depth -    
Sea Level Pressure  
Sea Level Pressure 30.09 in    
Wind  
Wind Speed 14 mph (SSW)    
Max Wind Speed 21 mph    
Max Gust Speed 29 mph    
Visibility 10 miles    
Events      
T = Trace of Precipitation, MM = Missing Value Source: NWS Daily Summary

Daily Weather History Graph

Daily Weather History Graph

Search for Another Location

Airport:

Trip Planner

Search our weather history database for the weather conditions in past years. The results will help you decide how hot, cold, wet, or windy it might be!

Date:

Astronomy

Nov. 14, 2013 Rise Set
Actual Time 7:21 AM EST 5:11 PM EST
Civil Twilight 6:51 AM EST 5:41 PM EST
Nautical Twilight 6:18 AM EST 6:15 PM EST
Astronomical Twilight 5:44 AM EST 6:48 PM EST
Moon 3:35 PM EST (11/14) 4:13 AM EST (11/14)
Length of Visible Light 10h 50m
Length of Day
9h 50m
Waxing Gibbous, 91% of the Moon is Illuminated
Nov 14
Waxing Gibbous
Nov 17
Full
Nov 25
Last Quarter
Dec 2
New
Dec 9
First Quarter

Hourly Weather History & Observations

Time (EST) Temp. Windchill Dew Point Humidity Pressure Visibility Wind Dir Wind Speed Gust Speed Precip Events Conditions
12:14 AM 33.8 °F 22.8 °F 17.6 °F 52% 30.16 in 10.0 mi SW 18.4 mph 24.2 mph N/A   Clear
12:34 AM 33.8 °F 23.9 °F 17.6 °F 52% 30.17 in 10.0 mi SW 15.0 mph 19.6 mph N/A   Clear
12:55 AM 33.8 °F 23.5 °F 17.6 °F 52% 30.18 in 10.0 mi WSW 16.1 mph 24.2 mph N/A   Clear
1:14 AM 33.8 °F 23.2 °F 17.6 °F 52% 30.18 in 10.0 mi WSW 17.3 mph 28.8 mph N/A   Clear
1:34 AM 33.8 °F 24.3 °F 17.6 °F 52% 30.17 in 10.0 mi SW 13.8 mph 24.2 mph N/A   Clear
1:54 AM 33.8 °F 23.5 °F 17.6 °F 52% 30.18 in 10.0 mi SW 16.1 mph 21.9 mph N/A   Clear
2:14 AM 33.8 °F 22.8 °F 17.6 °F 52% 30.18 in 10.0 mi WSW 18.4 mph 26.5 mph N/A   Clear
2:34 AM 32.0 °F 21.6 °F 17.6 °F 55% 30.18 in 10.0 mi SW 15.0 mph 23.0 mph N/A   Clear
2:54 AM 32.0 °F 22.1 °F 19.4 °F 60% 30.17 in 10.0 mi SW 13.8 mph 21.9 mph N/A   Clear
3:14 AM 32.0 °F 22.1 °F 19.4 °F 60% 30.18 in 10.0 mi SW 13.8 mph - N/A   Clear
3:34 AM 30.2 °F 21.9 °F 19.4 °F 64% 30.17 in 10.0 mi SW 9.2 mph - N/A   Clear
3:54 AM 30.2 °F 20.8 °F 19.4 °F 64% 30.18 in 10.0 mi SW 11.5 mph 19.6 mph N/A   Clear
4:14 AM 30.2 °F 20.8 °F 19.4 °F 64% 30.17 in 10.0 mi SW 11.5 mph 19.6 mph N/A   Clear
4:34 AM 30.2 °F 21.3 °F 19.4 °F 64% 30.17 in 10.0 mi SW 10.4 mph 16.1 mph N/A   Clear
4:54 AM 30.2 °F 21.9 °F 19.4 °F 64% 30.17 in 10.0 mi SW 9.2 mph 19.6 mph N/A   Clear
5:14 AM 30.2 °F 20.2 °F 19.4 °F 64% 30.16 in 10.0 mi SW 12.7 mph 18.4 mph N/A   Clear
5:34 AM 30.2 °F 21.3 °F 19.4 °F 64% 30.16 in 10.0 mi SSW 10.4 mph 17.3 mph N/A   Clear
5:54 AM 30.2 °F 21.3 °F 21.2 °F 69% 30.16 in 10.0 mi SSW 10.4 mph 17.3 mph N/A   Clear
6:14 AM 30.2 °F 20.2 °F 21.2 °F 69% 30.15 in 10.0 mi SSW 12.7 mph 17.3 mph N/A   Clear
6:34 AM 32.0 °F 23.0 °F 21.2 °F 64% 30.15 in 10.0 mi SW 11.5 mph 17.3 mph N/A   Clear
6:54 AM 32.0 °F 24.2 °F 21.2 °F 64% 30.14 in 10.0 mi SW 9.2 mph 17.3 mph N/A   Clear
7:15 AM 32.0 °F 23.0 °F 21.2 °F 64% 30.14 in 10.0 mi SW 11.5 mph - N/A   Clear
7:34 AM 32.0 °F 22.5 °F 19.4 °F 60% 30.14 in 10.0 mi SW 12.7 mph 17.3 mph N/A   Clear
7:54 AM 33.8 °F 25.8 °F 21.2 °F 60% 30.14 in 10.0 mi SW 10.4 mph 16.1 mph N/A   Clear
8:15 AM 33.8 °F 25.8 °F 21.2 °F 60% 30.14 in 10.0 mi SSW 10.4 mph 18.4 mph N/A   Clear
8:34 AM 33.8 °F 24.8 °F 21.2 °F 60% 30.14 in 10.0 mi SW 12.7 mph 19.6 mph N/A   Clear
8:54 AM 35.6 °F 27.1 °F 21.2 °F 56% 30.14 in 10.0 mi SW 12.7 mph 19.6 mph N/A   Clear
9:14 AM 35.6 °F 26.6 °F 19.4 °F 52% 30.14 in 10.0 mi SW 13.8 mph - N/A   Clear
9:34 AM 37.4 °F 28.5 °F 19.4 °F 48% 30.14 in 10.0 mi WSW 15.0 mph 24.2 mph N/A   Clear
9:54 AM 37.4 °F 28.2 °F 21.2 °F 52% 30.14 in 10.0 mi SW 16.1 mph 23.0 mph N/A   Clear
10:14 AM 39.2 °F 31.2 °F 21.2 °F 49% 30.13 in 10.0 mi SW 13.8 mph 17.3 mph N/A   Clear
10:35 AM 39.2 °F 33.6 °F 21.2 °F 49% 30.13 in 10.0 mi SW 8.1 mph 20.7 mph N/A   Clear
10:54 AM 41.0 °F 33.5 °F 21.2 °F 45% 30.13 in 10.0 mi SW 13.8 mph 20.7 mph N/A   Clear
11:14 AM 42.8 °F 35.8 °F 21.2 °F 42% 30.11 in 10.0 mi SW 13.8 mph 19.6 mph N/A   Clear
11:34 AM 44.6 °F 37.8 °F 21.2 °F 39% 30.10 in 10.0 mi SW 15.0 mph 20.7 mph N/A   Clear
11:54 AM 44.6 °F 37.8 °F 19.4 °F 37% 30.09 in 10.0 mi SW 15.0 mph 20.7 mph N/A   Clear
12:14 PM 44.6 °F 37.8 °F 19.4 °F 37% 30.08 in 10.0 mi SW 15.0 mph 24.2 mph N/A   Clear
12:34 PM 44.6 °F 36.6 °F 28.4 °F 53% 30.06 in 10.0 mi South 19.6 mph - N/A   Clear
12:54 PM 44.6 °F 36.6 °F 26.6 °F 49% 30.05 in 10.0 mi South 19.6 mph - N/A   Clear
1:14 PM 44.6 °F 38.1 °F 26.6 °F 49% 30.05 in 10.0 mi SSW 13.8 mph - N/A   Clear
1:34 PM 46.4 °F 39.0 °F 28.4 °F 50% 30.04 in 10.0 mi South 19.6 mph - N/A   Clear
1:54 PM 46.4 °F 38.7 °F 30.2 °F 53% 30.03 in 10.0 mi South 20.7 mph - N/A   Clear
2:14 PM 46.4 °F 39.2 °F 32.0 °F 57% 30.02 in 10.0 mi South 18.4 mph - N/A   Clear
2:34 PM 46.4 °F 39.8 °F 32.0 °F 57% 30.02 in 10.0 mi South 16.1 mph - N/A   Clear
2:54 PM 46.4 °F 39.8 °F 32.0 °F 57% 30.01 in 10.0 mi South 16.1 mph - N/A   Clear
3:14 PM 46.4 °F 40.1 °F 32.0 °F 57% 30.01 in 10.0 mi South 15.0 mph - N/A   Clear
3:34 PM 48.2 °F - 32.0 °F 54% 30.01 in 10.0 mi South 12.7 mph - N/A   Clear
3:54 PM 48.2 °F - 33.8 °F 58% 30.01 in 10.0 mi South 11.5 mph - N/A   Clear
4:14 PM 50.0 °F - 23.0 °F 35% 30.01 in 10.0 mi SSW 12.7 mph - N/A   Clear
4:34 PM 48.2 °F - 24.8 °F 40% 30.00 in 10.0 mi SSW 11.5 mph - N/A   Clear
4:55 PM 48.2 °F - 23.0 °F 37% 30.00 in 10.0 mi SSW 12.7 mph 18.4 mph N/A   Clear
5:14 PM 48.2 °F - 21.2 °F 34% 30.01 in 10.0 mi SSW 11.5 mph 19.6 mph N/A   Clear
5:34 PM 46.4 °F 40.1 °F 24.8 °F 43% 30.01 in 10.0 mi SSW 15.0 mph 20.7 mph N/A   Clear
5:55 PM 46.4 °F 39.8 °F 23.0 °F 40% 30.01 in 10.0 mi SSW 16.1 mph 23.0 mph N/A   Clear
6:14 PM 46.4 °F 40.1 °F 21.2 °F 37% 30.01 in 10.0 mi SSW 15.0 mph 19.6 mph N/A   Clear
6:34 PM 46.4 °F 39.8 °F 19.4 °F 34% 30.00 in 10.0 mi SSW 16.1 mph 23.0 mph N/A   Clear
6:54 PM 46.4 °F 40.4 °F 19.4 °F 34% 30.01 in 10.0 mi SSW 13.8 mph 21.9 mph N/A   Clear
7:14 PM 46.4 °F 41.5 °F 19.4 °F 34% 30.01 in 10.0 mi SSW 10.4 mph 23.0 mph N/A   Clear
7:34 PM 44.6 °F 39.2 °F 28.4 °F 53% 30.01 in 10.0 mi SSW 10.4 mph 17.3 mph N/A   Clear
7:54 PM 44.6 °F 38.1 °F 26.6 °F 49% 30.01 in 10.0 mi SSW 13.8 mph - N/A   Clear
8:14 PM 44.6 °F 38.8 °F 26.6 °F 49% 30.02 in 10.0 mi SSW 11.5 mph - N/A   Clear
8:34 PM 44.6 °F 39.2 °F 26.6 °F 49% 30.02 in 10.0 mi SSW 10.4 mph - N/A   Clear
8:54 PM 44.6 °F 38.4 °F 23.0 °F 43% 30.02 in 10.0 mi SSW 12.7 mph - N/A   Clear
9:14 PM 44.6 °F 38.4 °F 21.2 °F 39% 30.03 in 10.0 mi SSW 12.7 mph 19.6 mph N/A   Clear
9:34 PM 44.6 °F 38.8 °F 21.2 °F 39% 30.03 in 10.0 mi SSW 11.5 mph 18.4 mph N/A   Clear
9:54 PM 44.6 °F 39.2 °F 21.2 °F 39% 30.04 in 10.0 mi SSW 10.4 mph - N/A   Clear
10:14 PM 42.8 °F 37.5 °F 21.2 °F 42% 30.03 in 10.0 mi SSW 9.2 mph - N/A   Clear
10:35 PM 42.8 °F 36.6 °F 21.2 °F 42% 30.03 in 10.0 mi SSW 11.5 mph 18.4 mph N/A   Clear
10:54 PM 42.8 °F 37.0 °F 21.2 °F 42% 30.04 in 10.0 mi SSW 10.4 mph 17.3 mph N/A   Clear
11:14 PM 42.8 °F 38.0 °F 21.2 °F 42% 30.04 in 10.0 mi SSW 8.1 mph - N/A   Clear
11:34 PM 41.0 °F 35.2 °F 21.2 °F 45% 30.04 in 10.0 mi SSW 9.2 mph - N/A   Clear
11:54 PM 41.0 °F 36.4 °F 21.2 °F 45% 30.04 in 10.0 mi SSW 6.9 mph - N/A   Clear